weather.gov     
National Weather Service

Miscellaneous Local Product
NWS Homepage
This page is being discontinued on March 12, 2014.
The same data is available at this site. Please update your bookmarks.
Thank you, and we apologize for the inconvenience.
Please send an email to SR-SRH.Webmaster@noaa.gov with any concerns.


Current Version
Previous Version:    01  02  03  04  05  06  07  08  09  10  11  12  13  14  15  16  17  18  19  20  21  22  23  24  25  26  27  28  29  30  
   31  32  33  34  35  36  37  38  39  40  41  42  43  44  45  46  47  48  49  50  51  52  53  54  55  56  57  58  59  60  
[Printable]
528
AXUS43 KLBF 301810
MISLBF


WESTERN AND NORTH CENTRAL NEBRASKA HOURLY WEATHER ROUNDUP
NATIONAL WEATHER SERVICE NORTH PLATTE NE
100 PM CDT THU OCT 30 2014

***STATIONS NOT REPORTING VARIABLES SUCH AS SKY/WEATHER OR
PRESSURE ARE PROVIDED BY THE NEBRASKA DEPARTMENT OF
ROADS...RAWS...AND APRS NETWORKS...AND ARE NOT UNDER
NATIONAL WEATHER SERVICE QUALITY CONTROL***

...OBSERVATIONS IN AND NEAR THE EASTERN PANHANDLE OF NEBRASKA...

CITY           SKY/WX    TMP DP  RH WIND       PRES   REMARKS
PINE RIDGE     SUNNY     56  34  43 VRB7      30.32R
CHADRON        SUNNY     59  34  39 NW14      30.31S
ALLIANCE       SUNNY     59  33  37 N16G23    30.31S
SIDNEY         SUNNY     59  31  34 N16       30.34F
WHITECLAY        N/A     56  32  40 NE8         N/A
RUSHVILLE        N/A     56  30  36 N15         N/A
CRESCENT LAKE    N/A     59  32  36 N14G21      N/A
LISCO            N/A     63  28  27 W12         N/A
LEWELLEN         N/A     64  28  25 SE13        N/A
$$

...OBSERVATIONS IN NORTH CENTRAL NEBRASKA...

CITY           SKY/WX    TMP DP  RH WIND       PRES   REMARKS
VALENTINE      SUNNY     55  34  45 NW15      30.27R
THEDFORD       SUNNY     59  33  37 N23G33    30.26S
AINSWORTH      SUNNY     54  35  48 NW21G26   30.25R
O`NEILL        SUNNY     55  38  53 NW22G31   30.21R
ORD            SUNNY     59  35  40 NW24G32   30.19R
BROKEN BOW     SUNNY     61  35  37 N25G33    30.22S
BROWNLEE         N/A     58  35  41 NW28        N/A
SPRINGVIEW       N/A     53  37  55 N16G26      N/A
BREWSTER         N/A     61  36  39 E21         N/A
ROSE             N/A     57  38  50 W22         N/A
NEWPORT          N/A     53  36  51 NW23        N/A
SARGENT          N/A     58  34  40 NW9G17      N/A
COMSTOCK         N/A     64  33  31 W18         N/A
CHAMBERS         N/A     56  36  47 W9G16       N/A
$$

...OBSERVATIONS IN SOUTHWEST NEBRASKA AND FAR NORTHEAST COLORADO...

CITY           SKY/WX    TMP DP  RH WIND       PRES   REMARKS
WRAY           FAIR      65  28  24 NW13G18   30.32F
HOLYOKE        FAIR      64  30  27 N15       30.32S
IMPERIAL       SUNNY     62  31  31 N17       30.30F
OGALLALA       SUNNY     62  33  33 N14G20    30.30S
NORTH PLATTE   SUNNY     63  31  30 NW21G28   30.26S
MCCOOK         SUNNY     66  30  26 N20G28    30.26F
LEXINGTON      SUNNY     64  32  30 NW26G35   30.23S
PAXTON           N/A     57  37  47 W6          N/A
SUTHERLAND       N/A     59  26  28 S13         N/A
BRADY            N/A     61  34  36 S3          N/A
GOTHENBURG       N/A     59  29  32 N17         N/A
CALLAWAY         N/A     59  37  43 NW8         N/A
$$

...SOME WEATHER OBSERVATIONS FROM AROUND THE REGION...

CITY           SKY/WX    TMP DP  RH WIND       PRES   REMARKS
DENVER         MOSUNNY   56  25  30 MISG      30.37F
LARAMIE        SUNNY     50  27  40 E3        30.38F
CHEYENNE       SUNNY     55  25  31 N9G18     30.36F
SCOTTSBLUFF    SUNNY     58  33  39 W10       30.34F
RAPID CITY     SUNNY     53  35  50 N15G24    30.33R
PIERRE         MOSUNNY   44  34  67 N20G30    30.30R
WINNER         FAIR      53  34  48 N25G32    30.27R
SIOUX FALLS    PTSUNNY   54  42  64 NW18G29   30.12R
OMAHA          MOSUNNY   60  41  49 N25       30.07S
GRAND ISLAND   SUNNY     62  35  36 NW25G33   30.18S
KANSAS CITY    MOSUNNY   64  40  41 NW17      30.02S
WICHITA          N/A     70  36  28 N18G28    30.15S
HAYS           SUNNY     66  37  34 N17G23    30.23S
LIBERAL        SUNNY     70  36  28 N17G24    30.30S
GOODLAND       SUNNY     62  30  29 N14       30.33F
$$




U.S. Dept. of Commerce
NOAA National Weather Service
1325 East West Highway
Silver Spring, MD 20910
E-mail: w-nws.webmaster@noaa.gov
Page last modified: May 16, 2007
NATIONAL WEATHER SERVICE: for Safety, for Work, for Fun - FOR LIFE